HK6REC-25 Weather Reports


time (UTC)temp
F
wind
direction
speed
knots
gust
knots
rain 1hr
in
rain 24hr
in
rain mn
in
humidity
%
barometer
mb
20260504160348 71 146 0.9 0.9 0.00 0.00 0.00 90 1014.0
20260504150345 75 146 1.7 1.7 0.00 0.00 0.00 90 1015.0
20260504140343 69 137 1.7 0.9 0.00 0.00 0.00 95 1015.0
20260504130341 61 105 0.9 0.9 0.00 0.00 0.00 95 1015.0
20260504110337 54 295 0.0 0.0 0.00 0.00 0.00 91 1015.0
20260504100335 54 307 0.0 0.9 0.00 0.00 0.00 91 1015.0
20260504080331 55 334 0.0 0.9 0.00 0.00 0.00 91 1015.0
20260504070329 56 287 0.9 0.9 0.00 0.00 0.00 93 1015.0
20260504050325 57 299 0.9 0.9 0.00 0.00 0.00 90 1016.0
20260504043324 59 299 0.9 0.9 0.03 0.00 0.00 90 1016.0
20260504040324 61 299 1.7 0.9 0.02 0.00 0.00 90 1016.0
20260504033323 55 311 0.9 2.6 0.00 0.00 0.00 89 1016.0
20260504030322 57 311 0.9 2.6 0.00 0.00 0.00 89 1016.0
20260504023320 59 311 0.9 2.6 0.00 0.00 0.00 89 1016.0
20260504020319 61 311 1.7 2.6 0.00 0.00 0.00 89 1015.0
20260504013318 56 280 2.6 2.6 0.00 0.00 0.00 89 1015.0
20260504010317 58 280 2.6 2.6 0.00 0.00 0.00 89 1014.0
20260504003316 60 280 2.6 2.6 0.00 0.00 0.00 89 1014.0
20260504000315 62 280 2.6 2.6 0.00 0.00 0.00 89 1013.0
20260503233313 64 280 2.6 2.6 0.00 0.00 0.00 89 1012.0
20260503230312 59 301 2.6 4.3 0.00 0.00 0.00 82 1011.0
20260503223311 61 301 2.6 4.3 0.00 0.00 0.00 82 1011.0
20260503220310 63 301 2.6 4.3 0.00 0.00 0.00 82 1011.0
20260503213309 65 301 2.6 4.3 0.00 0.00 0.00 82 1010.0
20260503210308 64 302 0.9 0.9 0.00 0.00 0.00 71 1010.0
20260503203307 66 302 0.9 0.9 0.00 0.00 0.00 71 1010.0
20260503200305 68 302 0.9 0.9 0.00 0.00 0.00 71 1010.0
20260503193305 70 302 0.9 0.9 0.00 0.00 0.00 71 1010.0
20260503190303 72 302 0.9 0.9 0.00 0.00 0.00 71 1010.0
20260503183302 74 302 0.9 0.9 0.00 0.00 0.00 71 1010.0
20260503180301 76 302 1.7 1.7 0.00 0.00 0.00 71 1011.0
20260503173300 71 301 1.7 1.7 0.00 0.00 0.00 77 1012.0
20260503170259 73 308 0.0 1.7 0.00 0.00 0.00 77 1013.0